Regional Weather Roundup
Issued by NWS San Angelo, TX

Current Version | Previous Version | Text Only | Print | Product List | Glossary On
Versions: 1 2 3 4 5 6 7 8 9 10 11 12 13 14 15 16 17 18 19 20 21 22 23 24 25 26 27 28 29 30 31 32 33 34 35 36 37 38 39 40 41 42 43 44 45 46 47 48 49 50
000
ASUS44 KSJT 170010
RWRSJT
WEST CENTRAL TEXAS REGIONAL WEATHER ROUNDUP
NATIONAL WEATHER SERVICE SAN ANGELO TX
700 PM CDT WED AUG 16 2017

NOTE: "FAIR" INDICATES FEW OR NO CLOUDS BELOW 12,000 FEET WITH NO
SIGNIFICANT WEATHER AND/OR OBSTRUCTIONS TO VISIBILITY.

TXZ049-054-064>066-071>073-076>078-098-099-113-114-127-128-139-140-
154-155-168>170-170100
...LOCATIONS ACROSS WEST CENTRAL TEXAS...

CITY           SKY/WX    TMP DP  RH WIND       PRES   REMARKS
SAN ANGELO     SUNNY     92  68  45 S13       29.88S
ABILENE        SUNNY     92  72  51 S12       29.88S
DYESS AFB      SUNNY     94  72  48 SE12      29.86R
JUNCTION       CLOUDY    93  70  46 S10       29.90S THUNDER
SWEETWATER     MOSUNNY   91  68  46 S7        29.92S
BROWNWOOD      LGT RAIN  93  70  46 SE14      29.88S
COLEMAN        CLEAR     94  68  43 S9        29.89S
SONORA         CLOUDY    90  72  55 CALM      29.95S
OZONA          FAIR      90  68  48 S8        29.94F
BRADY          NOT AVBL
$$

TEXAS PANHANDLE/OKLAHOMA PANHANDLE

CITY           SKY/WX    TMP DP  RH WIND       PRES   REMARKS
AMARILLO       SUNNY     85  56  37 N9        30.01S
BORGER         SUNNY     87  55  33 N10       29.97S
CANADIAN       MOSUNNY   89  62  40 NE9       29.91S
DALHART        SUNNY     84  52  33 NE5       30.05S
DUMAS          CLEAR     82  55  39 CALM      30.02F
GUYMON         NOT AVBL
HEREFORD       CLEAR     85  59  42 NE8       30.03S
PAMPA          CLEAR     87  54  32 N9        29.99S
PERRYTON       SUNNY     86  58  38 N12       29.95S
$$

SOUTHERN PANHANDLE/SOUTH PLAINS/ROLLING PLAINS

CITY           SKY/WX    TMP DP  RH WIND       PRES   REMARKS
LUBBOCK        MOSUNNY   88  63  42 N7        29.98R
SNYDER         CLOUDY    87  67  51 NE13G18   29.93R
CHILDRESS      SUNNY     92  65  40 NW6       29.87R
SEMINOLE       CLEAR     92  48  22 N6        29.98S
$$

PERMIAN BASIN

CITY           SKY/WX    TMP DP  RH WIND       PRES   REMARKS
MIDLAND        SUNNY     96  57  27 VRB7      29.91S
ODESSA         SUNNY     94  58  29 CALM      29.93S
WINK           SUNNY     98  46  17 N14       29.90S
$$

FAR WEST/SOUTHWEST MOUNTAINS/TRANS PECOS

CITY           SKY/WX    TMP DP  RH WIND       PRES   REMARKS
ALPINE         CLOUDY    82  57  42 S15G22    30.13R
DRYDEN           N/A     88  72  58 S5        29.92R
EL PASO        MOSUNNY   92  47  21 W8        30.00F
FORT STOCKTON  CLOUDY    94  56  27 S12       29.92S
GUADALUPE PASS SUNNY     86  49  27 SW13      30.15S
MARFA          PTSUNNY   78  59  51 MISG      30.11R
PECOS          CLEAR     97  47  17 N3        29.89F
$$

DALLAS/FORT WORTH METROPLEX

CITY           SKY/WX    TMP DP  RH WIND       PRES   REMARKS
DFW AIRPORT    PTSUNNY   94  72  48 S13       29.83F
FTW MEACHAM    SUNNY     94  74  52 S13       29.84F
DAL-EXECUTIVE  SUNNY     94  72  48 VRB6      29.85F
GRAND PRAIRIE  SUNNY     93  70  46 SE9       29.86F
ADDISON        MOSUNNY   93  70  46 S12G23    29.86F
MESQUITE       PTCLDY    91  72  52 SE8       29.86F
LANCASTER      MOCLDY    94  70  46 S8        29.87S
$$

NORTH CENTRAL TEXAS

CITY           SKY/WX    TMP DP  RH WIND       PRES   REMARKS
SHRMAN/DENISON CLEAR     89  74  61 S10       29.87F
GAINESVILLE    SUNNY     89  73  58 SE9       29.88S
BRIDGEPORT     CLEAR     91  73  56 SE7       29.87S
DENTON         SUNNY     92  76  59 S13       29.84F
WAXAHACHIE     CLOUDY    93  71  48 S9        29.87F
GRANBURY       PTCLDY    94  71  45 S14       29.86S
$$

WESTERN NORTH TEXAS

CITY           SKY/WX    TMP DP  RH WIND       PRES   REMARKS
WICHITA FALLS  MOSUNNY   90  72  55 S15       29.82R
VERNON         PTCLDY    95  66  37 S9        29.83F
BRECKENRIDGE   PTCLDY    96  67  38 SW10      29.86R
COMANCHE       MOSUNNY   93  70  46 S8G17     29.88S
$$

CENTRAL AND SOUTH CENTRAL TEXAS

CITY           SKY/WX    TMP DP  RH WIND       PRES   REMARKS
AUSTIN/BERGSTM MOSUNNY   96  71  44 S10       29.86S
WACO           MOSUNNY   96  70  42 S15       29.85F
HILLSBORO      MOCLDY    96  70  43 S16       29.87S
TEMPLE         MOSUNNY   97  69  40 S16       29.87F
KILLEEN-GRAY   PTSUNNY   94  67  41 SE18      29.87F
FORT HOOD      CLOUDY    94  68  41 S13       29.84F
GEORGETOWN     SUNNY     96  67  38 S12       29.89F
LAGO VISTA     FAIR      94  66  39 S7        29.91F
SAN MARCOS     SUNNY    N/A N/A N/A S15         N/A
NEW BRAUNFELS  SUNNY     96  70  42 S20       29.86S
RANDOLPH AFB   SUNNY     94  70  44 SE14G22   29.88S
SAN ANTONIO    MOSUNNY   94  71  47 SE17      29.88S
STINSON        MOSUNNY   96  72  45 SE16      29.85R
PLEASANTON     NOT AVBL
LA GRANGE      SUNNY     95  73  48 S13       29.88R
GIDDINGS       CLEAR     94  70  45 SE12G21   29.90R
$$

EAST TEXAS

CITY           SKY/WX    TMP DP  RH WIND       PRES   REMARKS
PARIS          CLOUDY    91  76  61 S9        29.89F
CLARKSVILLE    NOT AVBL
TYLER          SUNNY     92  73  53 SE9       29.89F
LONGVIEW       SUNNY     92  75  57 S7        29.90S
PALESTINE      PTCLDY    95  70  44 S8        29.90S
NACOGDOCHES    NOT AVBL
$$

TEXAS HILL COUNTRY AND EDWARDS PLATEAU

CITY           SKY/WX    TMP DP  RH WIND       PRES   REMARKS
LLANO          CLEAR     90  72  55 CALM      29.91S
HORSESHOE BAY  FAIR      94  66  38 S9G17     29.89F
KERRVILLE      SUNNY     92  69  47 S10       29.92S
FREDERICKSBRG  MOSUNNY   91  64  40 SE6       29.93S
ROCKSPRINGS    NOT AVBL
HONDO          SUNNY     98  66  34 SE13      29.86F
UVALDE         CLEAR     98  64  33 SE10      29.86R
DEL RIO        CLOUDY    90  72  55 SE7       29.86
$$

SOUTHEAST TEXAS

CITY           SKY/WX    TMP DP  RH WIND       PRES   REMARKS
COLLEGE STN    SUNNY     94  72  48 S16       29.89S
CALDWELL       NOT AVBL
CROCKETT       CLEAR     91  75  59 SE12G18   29.94S
BRENHAM        SUNNY     94  71  47 SE10G22   29.91R
HUNTSVILLE     MOSUNNY   92  73  53 VRB6      29.92S
CONROE         MOSUNNY   90  75  61 SE12      29.93S
HOUSTON BUSH   PTSUNNY   91  74  57 S9        29.93S
HOUSTON HOBBY  PTSUNNY   91  75  59 S14G20    29.93F
PERLAND        PTSUNNY   91  76  61 S10       29.96S
WHARTON        CLEAR     88  72  58 SE12      29.93F
$$

THE UPPER TEXAS COAST

CITY           SKY/WX    TMP DP  RH WIND       PRES   REMARKS
ORANGE         PTCLDY    86  78  77 S9        29.99S
PORT ARTHUR    CLOUDY    85  77  77 S10       29.97S
GALVESTON      MOSUNNY   88  79  74 S13       29.97F
ANGLETON       CLOUDY    88  78  72 S9        29.96S
BAY CITY       PTCLDY    87  79  79 S8        29.94F
$$

TEXAS COASTAL BEND, RIO GRANDE PLAINS DEEP SOUTH TEXAS

CITY           SKY/WX    TMP DP  RH WIND       PRES   REMARKS
VICTORIA       SUNNY     90  73  57 S16       29.91S
BEEVILLE       FAIR      92  75  59 SE16G26   29.89R
ROCKPORT       SUNNY     88  78  72 SE17G24   29.90S
PORT ARANSAS   MOCLDY    86  79  80 SE14      29.91R
PORT LAVACA    PTCLDY    88  76  67 S13       29.92S
CORPUS CHRISTI MOSUNNY   89  77  67 SE22G33   29.89R
KINGSVILLE NAS MOSUNNY   90  79  70 SE25G35   29.87S
COTULLA        MOSUNNY  100  62  28 SE15G22   29.82S
LAREDO         SUNNY    101  68  34 SE14      29.81S
BROWNSVILLE    SUNNY     89  77  67 SE24G32   29.89S
PORT ISABEL    SUNNY     90  77  65 SE22G30   29.88S
HEBBRONVILLE   PTCLDY    96  64  35 SE18      29.86R
MCALLEN        SUNNY     95  74  50 SE22G29   29.85R
WESLACO        MOSUNNY   92  73  54 S20G30    29.85R
FALFURRIAS     CLEAR     94  75  53 SE20G25   29.84R
EDINBURG       CLEAR     96  70  43 S18G25    29.85R
$$



USA.gov is the U.S. government's official web portal to all federal, state and local government web resources and services.